STARLINK-1154 (45198 NORAD) Tracking and Keplerian Element Data

This shows tracking and keplerian element data for the satellite.

Feedback or suggestion? Click here.




ElementValue
Catalog45198
NameSTARLINK-1154
Epoch Orbit2171
Epoch Day187.50002315
Epoch Year2020
RAAN333.5249
Inclination53.0014
Eccentricity0.000161
Argument of Perigee102.2357
Mean Anonmoly338.4998
Mean Motion15.05611698
Decay Rate-0.00021439
L11 45198U 20012W 20187.50002315 -.00021439 00000-0 -14554-2 0 9998
L22 45198 53.0014 333.5249 0001610 102.2357 338.4998 15.05611698 21716

Live tracking and technical data element details for STARLINK-1154 (NORAD 45198). STARLINK-1154 can be tracked NOW for your location showing map with azimuth and elevation plus other details from your city location.

Track the satellite on the map from your city or location and see movement details for azimuth, elevation, latitude, longitude, range, height, and movement on the map or in text.







IsCatalogInMostPopularTable: catalog: 45198, numindb: 28
Update: records affected: 1



GetName: 45198 STARLINK-1154

Hit Count: updated at: Mon, 06 Jul 2020 05:23:20 GMT